[[{"header":{"parameterUnit":"m.s-1","parameterCategory":1,"la1":30.2991,"la2":30.254,"lo1":-89.0895,"lo2":-89.0444,"dy":0.0017,"dx":0.0017,"nx":28,"ny":28,"refTime":"2025-07-19T21:00:00:Z","depth":0,"parameterNumber":2,"parameterNumberName":"U-component_of_WINDS"},"data":[0,0,0,0,0,0,0,0,0,0,0,0,0,0,0,0,0,0,0,0,0,0,0,0,0,0,0,0,0,0,0,0,0,0,0,0,0,0,0,0,0,0,0,0,0,0,0,0,0,0,0,0,0,0,0,0,0,0,2.1792,2.1793,0,2.1851,2.1852,2.1853,2.1865,2.1865,2.1864,2.1864,2.1926,2.1928,2.193,0,0,0,0,0,0,0,0,0,0,0,0,0,2.1691,2.1693,2.1792,2.1793,2.1794,2.1851,2.1852,2.1853,2.1865,2.1865,2.1864,2.1864,2.1925,2.1928,2.193,0,0,0,0,0,0,0,0,0,0,0,0,0,2.1741,2.1693,2.1792,2.1807,2.1808,2.1851,2.1852,2.1853,2.1865,2.1865,2.1864,2.1863,2.1924,2.1927,2.193,2.1963,0,0,2.194,2.1941,0,0,0,0,0,0,0,0,2.1738,2.1745,2.1804,2.1806,2.1808,2.185,2.1839,2.189,2.1865,2.1844,2.1864,2.1863,2.1901,2.1906,2.1919,2.1966,2.1969,2.194,2.1942,2.1943,2.1944,0,0,0,0,0,0,0,2.1735,2.1742,2.1816,2.1805,2.1807,2.1811,2.1817,2.1849,2.1876,2.1846,2.1847,2.1853,2.1902,2.1916,2.192,2.197,2.194,2.1943,2.1945,2.1946,2.2047,2.2048,0,0,0,0,0,0,2.1729,2.1739,2.1814,2.1817,2.1771,2.1813,2.182,2.1837,2.1875,2.188,2.1854,2.1854,2.1911,2.1917,2.1923,2.1964,2.1943,2.1946,2.1948,2.2046,2.2047,2.2048,0,0,0,0,0,0,2.1726,2.1735,2.1811,2.1779,2.1789,2.1815,2.1835,2.1839,2.1852,2.1882,2.1887,2.1863,2.1911,2.1918,2.1953,2.1966,2.1948,2.1951,2.2045,2.2047,2.2048,2.2046,0,0,0,0,0,0,2.1723,2.1734,2.1746,2.1779,2.179,2.184,2.1835,2.184,2.1857,2.1858,2.1891,2.1896,2.1911,2.1948,2.1956,2.197,2.1953,2.2044,2.2046,2.2047,2.2045,2.2047,2.2048,0,0,0,0,0,2.172,2.1744,2.1747,2.1756,2.1806,2.1841,2.1847,2.1863,2.1858,2.1871,2.189,2.1895,2.1963,2.1952,2.1961,2.1976,2.2043,2.2045,2.2047,2.2044,2.2046,2.2048,0,0,0,0,0,0,2.1713,2.1748,2.1752,2.1787,2.1811,2.1843,2.1859,2.1865,2.1891,2.189,2.1909,2.1917,2.1951,2.1967,2.1953,2.201,2.2003,2.2007,2.1998,2.2,2.2002,2.1998,2.1956,0,0,0,0,0,2.1715,2.174,2.177,2.1798,2.1809,2.1832,2.1848,2.1858,2.1884,2.1894,2.1915,2.194,2.1967,2.1985,2.2011,2.2047,2.2055,2.2062,2.2064,2.2065,2.2068,2.2089,2.2092,2.2054,2.2054,2.2054,0,0,2.172,2.1743,2.1757,2.1797,2.1816,2.1842,2.1841,2.1868,2.1887,2.1898,2.1932,2.1949,2.1978,2.2013,2.203,2.2028,2.208,2.2067,2.2068,2.2071,2.2091,2.2095,2.2098,2.2055,2.2055,2.2055,0,0,2.1743,2.1763,2.1789,2.1808,2.1837,2.1853,2.1859,2.189,2.1901,2.1935,2.1944,2.1968,2.2014,2.2034,2.2051,2.2082,2.2087,2.209,2.21,2.212,2.2123,2.2125,2.2137,2.2141,2.2093,2.2093,2.2093,0,2.1747,2.1785,2.1801,2.1828,2.1845,2.1856,2.1883,2.1901,2.1937,2.1949,2.1946,2.2004,2.2025,2.2065,2.2073,2.2086,2.2094,2.2086,2.2121,2.2124,2.2127,2.2138,2.2142,2.2093,2.2093,2.2093,2.2093,0,2.1788,2.1815,2.1832,2.1867,2.1886,2.1913,2.1933,2.1951,2.1959,2.1975,2.201,2.2035,2.2067,2.2077,2.2086,2.2119,2.2117,2.2117,2.2111,2.213,2.2141,2.2145,2.2093,2.2093,2.2093,2.2093,0,0,2.1808,2.1851,2.1858,2.1874,2.1907,2.1928,2.1955,2.1986,2.2001,2.2026,2.205,2.2089,2.2089,2.2108,2.2119,2.2136,2.216,2.2135,2.2136,2.2139,2.2199,2.2198,2.2203,2.2164,2.2165,2.2165,2.2196,0,2.1835,2.1884,2.1899,2.194,2.1965,2.1976,2.2,2.2023,2.2038,2.2062,2.2079,2.2107,2.2105,2.2116,2.2134,2.2153,2.2172,2.2151,2.2186,2.2187,2.2179,2.2208,2.2208,2.2236,2.22,2.2201,2.2202,0,2.1874,2.1899,2.1942,2.1973,2.1984,2.2005,2.2034,2.2057,2.2084,2.2094,2.2115,2.2124,2.2154,2.2146,2.2187,2.2172,2.2188,2.2199,2.2201,2.2205,2.2196,2.2213,2.2245,2.225,2.2208,2.2208,2.2207,0,2.1884,2.1929,2.1961,2.1974,2.2011,2.2025,2.2041,2.2067,2.2085,2.2111,2.2123,2.2152,2.2168,2.2191,2.2208,2.2201,2.2248,2.2241,2.2257,2.2257,2.2267,2.2266,2.2302,2.2276,2.2276,2.2276,2.2276,0,2.1913,2.1939,2.1966,2.1986,2.2016,2.2033,2.2062,2.2079,2.2102,2.2125,2.2136,2.2158,2.218,2.2205,2.2219,2.2251,2.2258,2.2267,2.2271,2.2266,2.2265,2.2277,2.2275,2.2277,2.2277,2.2277,2.2277,0,2.193,2.1949,2.1985,2.2016,2.2025,2.2045,2.2072,2.2092,2.2108,2.2137,2.2145,2.217,2.22,2.2219,2.2258,2.2267,2.2302,2.2305,2.2293,2.2294,2.2309,2.2308,2.2354,2.2361,2.2331,2.2331,2.2331,0,2.1948,2.1968,2.2002,2.2018,2.2034,2.2059,2.2077,2.2096,2.2114,2.2146,2.2162,2.2192,2.2218,2.2265,2.2287,2.2316,2.232,2.2334,2.2324,2.2319,2.232,2.2319,2.2321,2.2336,2.2336,2.2336,2.2336,0,2.1977,2.1985,2.201,2.2039,2.206,2.2084,2.2107,2.212,2.2143,2.2163,2.2193,2.2213,2.2251,2.2281,2.2313,2.233,2.2337,2.2339,2.2344,2.234,2.2332,2.2337,2.2297,2.2338,2.2338,2.2338,2.2337,2.2337,2.1995,2.2013,2.204,2.2068,2.2087,2.2109,2.2129,2.2147,2.2173,2.2206,2.2215,2.2247,2.2273,2.2316,2.2333,2.2359,2.2357,2.2365,2.2367,2.2368,2.2369,2.2328,2.2364,2.2364,2.2364,2.2364,2.2364,0,2.2024,2.2042,2.2067,2.21,2.2122,2.2126,2.2153,2.2171,2.2199,2.2223,2.2247,2.2282,2.2312,2.2336,2.2366,2.2382,2.2386,2.2389,2.2388,2.2392,2.2368,2.236,2.2385,2.2385,2.2385,2.2385,2.2385,2.2385,2.2042,2.2074,2.2085,2.2127,2.2145,2.2176,2.219,2.2211,2.223,2.2269,2.2293,2.2308,2.2333,2.2365,2.2392,2.2398,2.2409,2.2412,2.2419,2.2396,2.2394,2.2391,2.2384,2.2414,2.2414,2.2441,2.2441,2.2441]},{"header":{"parameterUnit":"m.s-1","parameterCategory":1,"la1":30.2991,"la2":30.254,"lo1":-89.0895,"lo2":-89.0444,"dy":0.0017,"dx":0.0017,"nx":28,"ny":28,"refTime":"2025-07-19T21:00:00:Z","depth":0,"parameterNumber":3,"parameterNumberName":"V-component_of_WINDS"},"data":[0,0,0,0,0,0,0,0,0,0,0,0,0,0,0,0,0,0,0,0,0,0,0,0,0,0,0,0,0,0,0,0,0,0,0,0,0,0,0,0,0,0,0,0,0,0,0,0,0,0,0,0,0,0,0,0,0,0,0.6214,0.6214,0,0.6194,0.6194,0.6194,0.6179,0.6179,0.6179,0.6178,0.6158,0.6158,0.6157,0,0,0,0,0,0,0,0,0,0,0,0,0,0.6237,0.6237,0.6214,0.6214,0.6213,0.6194,0.6194,0.6194,0.6179,0.6179,0.6179,0.6178,0.6158,0.6158,0.6157,0,0,0,0,0,0,0,0,0,0,0,0,0,0.6223,0.6237,0.6214,0.6204,0.6203,0.6194,0.6194,0.6194,0.6179,0.6179,0.6178,0.6178,0.6158,0.6158,0.6157,0.6157,0,0,0.6155,0.6155,0,0,0,0,0,0,0,0,0.6224,0.6222,0.6205,0.6204,0.6203,0.6189,0.6195,0.6181,0.6179,0.6188,0.6178,0.6178,0.6168,0.6167,0.6164,0.6156,0.6155,0.6155,0.6155,0.6154,0.6154,0,0,0,0,0,0,0,0.6225,0.6223,0.6206,0.6205,0.6204,0.62,0.6197,0.6192,0.6179,0.6187,0.6186,0.6184,0.6168,0.6164,0.6163,0.6155,0.6155,0.6155,0.6154,0.6154,0.6145,0.6145,0,0,0,0,0,0,0.6228,0.6224,0.6207,0.6205,0.6213,0.6199,0.6197,0.6194,0.6179,0.6177,0.6184,0.6183,0.6165,0.6164,0.6162,0.6161,0.6154,0.6154,0.6153,0.6145,0.6145,0.6146,0,0,0,0,0,0,0.6228,0.6226,0.6207,0.6214,0.6212,0.6199,0.6196,0.6193,0.619,0.6177,0.6175,0.6183,0.6165,0.6163,0.6158,0.616,0.6154,0.6153,0.6145,0.6145,0.6145,0.6158,0,0,0,0,0,0,0.6229,0.6227,0.6227,0.6215,0.6211,0.6204,0.6196,0.6193,0.6189,0.6188,0.6176,0.6173,0.6165,0.6159,0.6158,0.6159,0.6152,0.6145,0.6145,0.6145,0.6157,0.6159,0.616,0,0,0,0,0,0.623,0.6231,0.6227,0.6225,0.6212,0.6204,0.6202,0.6193,0.6189,0.6189,0.6181,0.6174,0.616,0.6159,0.6157,0.6158,0.6145,0.6145,0.6145,0.6157,0.6158,0.616,0,0,0,0,0,0,0.6244,0.623,0.6225,0.6222,0.6215,0.6202,0.6201,0.6195,0.6188,0.6187,0.6175,0.6173,0.6169,0.6163,0.6162,0.6157,0.6151,0.6151,0.6161,0.6162,0.6163,0.6164,0.6152,0,0,0,0,0,0.6247,0.6243,0.623,0.6229,0.6226,0.6214,0.6211,0.6204,0.6196,0.6192,0.6184,0.6176,0.6169,0.6165,0.6159,0.6156,0.6153,0.6156,0.6157,0.6158,0.6158,0.6155,0.6156,0.6147,0.6147,0.6147,0,0,0.6253,0.6245,0.6243,0.6232,0.6225,0.622,0.6212,0.6207,0.6203,0.6192,0.6186,0.6179,0.617,0.6166,0.6163,0.616,0.616,0.6158,0.6159,0.6159,0.6155,0.6156,0.6157,0.6147,0.6147,0.6147,0,0,0.6261,0.6255,0.6253,0.6246,0.6236,0.6228,0.6228,0.6216,0.6211,0.6205,0.6196,0.6191,0.6181,0.6174,0.6169,0.6173,0.6166,0.6171,0.6177,0.6174,0.6175,0.6176,0.6177,0.6177,0.6171,0.6172,0.6172,0,0.627,0.6263,0.6253,0.6248,0.6244,0.6232,0.623,0.6224,0.6212,0.6209,0.6206,0.6192,0.6184,0.6178,0.6179,0.6176,0.6174,0.6173,0.6176,0.6176,0.6177,0.6177,0.6178,0.6172,0.6172,0.6172,0.6172,0,0.6273,0.6268,0.6268,0.6257,0.6252,0.6249,0.6237,0.6233,0.6227,0.6219,0.6213,0.6204,0.6195,0.6193,0.6186,0.6185,0.6183,0.6178,0.6173,0.6179,0.6179,0.6179,0.6173,0.6173,0.6173,0.6173,0,0,0.629,0.6273,0.6273,0.6267,0.6255,0.6251,0.6246,0.6237,0.6234,0.6226,0.6222,0.6213,0.6208,0.6202,0.6195,0.6192,0.6195,0.6187,0.6187,0.6189,0.6192,0.6196,0.6196,0.6191,0.6191,0.6191,0.6193,0,0.6296,0.6288,0.6278,0.6274,0.6268,0.6257,0.6253,0.6245,0.6238,0.6232,0.6223,0.6217,0.6211,0.6207,0.6205,0.6196,0.6196,0.6195,0.6186,0.6186,0.6188,0.6196,0.62,0.6203,0.6193,0.6193,0.6193,0,0.6302,0.6294,0.6289,0.6276,0.6273,0.627,0.6261,0.6255,0.6245,0.624,0.6233,0.6225,0.6219,0.6215,0.6206,0.6206,0.6201,0.6196,0.6196,0.6194,0.6189,0.6195,0.6204,0.6204,0.6193,0.6193,0.6193,0,0.6314,0.6302,0.6297,0.6293,0.6278,0.6276,0.6269,0.6259,0.6254,0.6246,0.6242,0.6233,0.6228,0.6221,0.6211,0.6208,0.6203,0.6197,0.6197,0.6198,0.6197,0.6197,0.6204,0.6195,0.6195,0.6195,0.6194,0,0.6321,0.6317,0.6302,0.6299,0.6295,0.6283,0.628,0.6272,0.6263,0.6258,0.6248,0.6243,0.6229,0.6223,0.6214,0.6208,0.6206,0.6201,0.6199,0.6202,0.6202,0.6198,0.6198,0.6195,0.6195,0.6195,0.6195,0,0.6333,0.6323,0.6316,0.6303,0.6299,0.6297,0.6285,0.6281,0.6273,0.6266,0.6264,0.6251,0.6242,0.6231,0.6219,0.6214,0.6208,0.6205,0.6211,0.621,0.6211,0.621,0.6216,0.6215,0.6206,0.6206,0.6207,0,0.6338,0.6335,0.6321,0.6317,0.6311,0.6305,0.6299,0.6288,0.6282,0.627,0.6268,0.6259,0.6251,0.6238,0.6227,0.6217,0.6213,0.6216,0.6212,0.6215,0.6213,0.6213,0.6212,0.6217,0.6217,0.6217,0.6217,0,0.6347,0.6342,0.6335,0.6326,0.632,0.6312,0.6304,0.6301,0.6288,0.6282,0.6273,0.6267,0.6255,0.6246,0.6235,0.6227,0.622,0.6218,0.6218,0.6221,0.6224,0.6222,0.6214,0.6218,0.6218,0.6218,0.6218,0.6218,0.6356,0.6352,0.6342,0.6334,0.6327,0.6319,0.6314,0.6306,0.6298,0.6287,0.6281,0.6272,0.6261,0.6246,0.6239,0.6231,0.6228,0.6228,0.6228,0.6227,0.6228,0.6226,0.6229,0.6229,0.6229,0.6229,0.6229,0,0.6364,0.6356,0.6349,0.6338,0.6332,0.6325,0.6316,0.6311,0.6303,0.6294,0.6286,0.6276,0.6266,0.6255,0.6244,0.6241,0.6237,0.6238,0.6238,0.6236,0.6232,0.6233,0.6241,0.6241,0.6241,0.6241,0.6241,0.6241,0.6367,0.6361,0.6355,0.6345,0.6337,0.6329,0.6324,0.6316,0.6309,0.6298,0.629,0.6282,0.6272,0.626,0.6251,0.6248,0.6244,0.6247,0.6242,0.6238,0.6237,0.6236,0.6237,0.6246,0.6246,0.6248,0.6248,0.6248]}]]